Change the Weather History Date:

Wednesday, November 27, 2013

  Actual Average Record
Temperature  
Mean Temperature 16 °F -  
Max Temperature 19 °F 9 °F 30 °F (2002)
Min Temperature 14 °F 0 °F -18 °F (2006)
Degree Days  
Heating Degree Days 48    
Moisture  
Dew Point 16 °F    
Average Humidity 96    
Maximum Humidity 100    
Minimum Humidity 79    
Precipitation  
Precipitation 0.00 in - - ()
Sea Level Pressure  
Sea Level Pressure 29.57 in    
Wind  
Wind Speed 5 mph (NNW)    
Max Wind Speed 15 mph    
Max Gust Speed 22 mph    
Visibility 8 miles    
Events      
Averages and records for this station are not official NWS values.
T = Trace of Precipitation, MM = Missing Value Source: NWS Daily Summary

Daily Weather History Graph

Daily Weather History Graph

Search for Another Location

Airport or City:

Trip Planner

Search our weather history database for the weather conditions in past years. The results will help you decide how hot, cold, wet, or windy it might be!

Date:

Astronomy

Nov. 27, 2013 Rise Set
Actual Time 9:32 AM AKST 3:39 PM AKST
Civil Twilight 8:33 AM AKST 4:38 PM AKST
Nautical Twilight 7:35 AM AKST 5:36 PM AKST
Astronomical Twilight 6:41 AM AKST 6:30 PM AKST
Moon 2:03 AM AKST (11/27) 1:54 PM AKST (11/27)
Length of Visible Light 8h 04m
Length of Day
6h 06m
Waning Crescent, 30% of the Moon is Illuminated
Nov 27
Waning Crescent
Dec 2
New
Dec 9
First Quarter
Dec 17
Full
Dec 25
Last Quarter

Hourly Weather History & Observations

Time (AKST) Temp. Windchill Dew Point Humidity Pressure Visibility Wind Dir Wind Speed Gust Speed Precip Events Conditions
12:16 AM 17.6 °F 9.3 °F 15.8 °F 93% 29.77 in 10.0 mi ENE 5.8 mph - N/A   Overcast
12:36 AM 17.6 °F 9.3 °F 15.8 °F 93% 29.76 in 8.0 mi ENE 5.8 mph - N/A   Overcast
12:56 AM 17.6 °F 10.7 °F 15.8 °F 93% 29.76 in 10.0 mi ENE 4.6 mph - N/A   Overcast
1:16 AM 15.8 °F 10.2 °F 15.8 °F 100% 29.76 in 10.0 mi East 3.5 mph - N/A   Overcast
1:36 AM 15.8 °F 8.6 °F 15.8 °F 100% 29.75 in 5.0 mi ENE 4.6 mph - N/A   Overcast
1:56 AM 15.8 °F 8.6 °F 15.8 °F 100% 29.75 in 6.0 mi East 4.6 mph - N/A   Overcast
2:16 AM 15.8 °F 8.6 °F 15.8 °F 100% 29.75 in 10.0 mi ENE 4.6 mph - N/A   Overcast
2:36 AM 15.8 °F 8.6 °F 15.8 °F 100% 29.74 in 4.0 mi NE 4.6 mph - N/A   Overcast
2:56 AM 15.8 °F 8.6 °F 15.8 °F 100% 29.73 in 3.0 mi NE 4.6 mph - N/A   Overcast
3:16 AM 15.8 °F 10.2 °F 14.0 °F 93% 29.73 in 2.5 mi East 3.5 mph - N/A   Overcast
3:36 AM 15.8 °F 10.2 °F 14.0 °F 93% 29.73 in 10.0 mi ENE 3.5 mph - N/A   Overcast
3:56 AM 15.8 °F 7.2 °F 14.0 °F 93% 29.72 in 0.2 mi NE 5.8 mph - N/A   Overcast
4:16 AM 15.8 °F 8.6 °F 14.0 °F 93% 29.72 in 0.8 mi NE 4.6 mph - N/A   Overcast
4:36 AM 15.8 °F 8.6 °F 14.0 °F 93% 29.71 in 0.5 mi NNE 4.6 mph - N/A   Overcast
4:56 AM 14.0 °F 8.2 °F 12.2 °F 93% 29.70 in 0.5 mi NE 3.5 mph - N/A   Overcast
5:16 AM 15.8 °F 10.2 °F 15.8 °F 100% 29.70 in 2.0 mi NNE 3.5 mph - N/A   Overcast
5:36 AM 14.0 °F - 12.2 °F 93% 29.69 in 2.0 mi Calm Calm - N/A   Overcast
5:56 AM 15.8 °F 8.6 °F 15.8 °F 100% 29.68 in 1.5 mi NNE 4.6 mph - N/A   Overcast
6:16 AM 15.8 °F 10.2 °F 14.0 °F 93% 29.68 in 10.0 mi NE 3.5 mph - N/A   Overcast
6:36 AM 15.8 °F - 15.8 °F 100% 29.67 in 10.0 mi Calm Calm - N/A   Overcast
6:56 AM 15.8 °F 8.6 °F 14.0 °F 93% 29.67 in 10.0 mi NE 4.6 mph - N/A   Overcast
7:16 AM 15.8 °F - 14.0 °F 93% 29.66 in 10.0 mi Calm Calm - N/A   Overcast
7:36 AM 15.8 °F 10.2 °F 14.0 °F 93% 29.65 in 4.0 mi ENE 3.5 mph - N/A   Overcast
7:56 AM 15.8 °F 10.2 °F 14.0 °F 93% 29.65 in 10.0 mi NE 3.5 mph - N/A   Overcast
8:16 AM 15.8 °F 8.6 °F 15.8 °F 100% 29.64 in 10.0 mi ENE 4.6 mph - N/A   Overcast
8:36 AM 15.8 °F 10.2 °F 14.0 °F 93% 29.64 in 10.0 mi ENE 3.5 mph - N/A   Overcast
8:56 AM 15.8 °F - 15.8 °F 100% 29.64 in 10.0 mi Calm Calm - N/A   Overcast
9:16 AM 15.8 °F 10.2 °F 15.8 °F 100% 29.63 in 10.0 mi NE 3.5 mph - N/A   Overcast
9:36 AM 15.8 °F - 15.8 °F 100% 29.63 in 10.0 mi Calm Calm - N/A   Overcast
9:56 AM 17.6 °F - 15.8 °F 93% 29.62 in 10.0 mi Calm Calm - N/A   Overcast
10:16 AM 15.8 °F - 15.8 °F 100% 29.61 in 10.0 mi Calm Calm - N/A   Overcast
10:36 AM 15.8 °F 10.2 °F 15.8 °F 100% 29.61 in 10.0 mi NNE 3.5 mph - N/A   Overcast
10:56 AM 15.8 °F 10.2 °F 14.0 °F 93% 29.60 in 10.0 mi NNE 3.5 mph - N/A   Overcast
11:16 AM 15.8 °F 10.2 °F 15.8 °F 100% 29.59 in 10.0 mi North 3.5 mph - N/A   Mostly Cloudy
11:36 AM 15.8 °F - 15.8 °F 100% 29.58 in 10.0 mi Calm Calm - N/A   Scattered Clouds
11:56 AM 17.6 °F - 17.6 °F 100% 29.57 in 10.0 mi Calm Calm - N/A   Partly Cloudy
12:16 PM 17.6 °F - 15.8 °F 93% 29.57 in 10.0 mi Calm Calm - N/A   Clear
12:36 PM 17.6 °F - 15.8 °F 93% 29.56 in 10.0 mi Calm Calm - N/A   Mostly Cloudy
12:56 PM 17.6 °F - 15.8 °F 93% 29.55 in 10.0 mi Calm Calm - N/A   Mostly Cloudy
1:16 PM 17.6 °F - 15.8 °F 93% 29.54 in 10.0 mi Calm Calm - N/A   Clear
1:36 PM 15.8 °F - 15.8 °F 100% 29.53 in 10.0 mi Calm Calm - N/A   Partly Cloudy
1:56 PM 15.8 °F - 15.8 °F 100% 29.52 in 10.0 mi Calm Calm - N/A   Scattered Clouds
2:16 PM 15.8 °F - 15.8 °F 100% 29.51 in 10.0 mi Calm Calm - N/A   Scattered Clouds
2:36 PM 17.6 °F 12.3 °F 15.8 °F 93% 29.50 in 10.0 mi WSW 3.5 mph - N/A   Overcast
2:56 PM 17.6 °F 9.3 °F 17.6 °F 100% 29.49 in 10.0 mi West 5.8 mph - N/A   Overcast
3:16 PM 17.6 °F 8.2 °F 17.6 °F 100% 29.48 in 10.0 mi WSW 6.9 mph - N/A   Overcast
3:36 PM 17.6 °F 5.0 °F 15.8 °F 93% 29.48 in 8.0 mi WSW 11.5 mph - N/A   Overcast
3:56 PM 17.6 °F 5.7 °F 17.6 °F 100% 29.47 in 10.0 mi West 10.4 mph - N/A   Overcast
4:16 PM 19.4 °F 7.9 °F 17.6 °F 93% 29.46 in 10.0 mi WSW 10.4 mph - N/A   Overcast
4:36 PM 17.6 °F 5.0 °F 15.8 °F 93% 29.45 in 10.0 mi WSW 11.5 mph - N/A   Overcast
4:56 PM 17.6 °F 6.4 °F 15.8 °F 93% 29.44 in 10.0 mi WSW 9.2 mph - N/A   Overcast
5:16 PM 17.6 °F 5.7 °F 15.8 °F 93% 29.43 in 10.0 mi WSW 10.4 mph - N/A   Overcast
5:36 PM 17.6 °F 3.7 °F 17.6 °F 100% 29.42 in 10.0 mi WSW 13.8 mph 18.4 mph N/A   Overcast
5:56 PM 17.6 °F 3.7 °F 17.6 °F 100% 29.42 in 10.0 mi WSW 13.8 mph 17.3 mph N/A   Overcast
6:16 PM 17.6 °F 3.7 °F 17.6 °F 100% 29.41 in 10.0 mi WSW 13.8 mph 19.6 mph N/A   Overcast
6:36 PM 17.6 °F 3.2 °F 17.6 °F 100% 29.41 in 10.0 mi WSW 15.0 mph 21.9 mph N/A   Overcast
6:56 PM 17.6 °F 3.2 °F 15.8 °F 93% 29.40 in 10.0 mi WSW 15.0 mph - N/A   Overcast
7:16 PM 17.6 °F 5.7 °F 15.8 °F 93% 29.40 in 10.0 mi WSW 10.4 mph - N/A   Overcast
7:36 PM 17.6 °F 5.0 °F 17.6 °F 100% 29.40 in 10.0 mi WSW 11.5 mph - N/A   Overcast
7:56 PM 17.6 °F 5.0 °F 17.6 °F 100% 29.40 in 10.0 mi WSW 11.5 mph - N/A   Overcast
8:16 PM 17.6 °F 5.7 °F 17.6 °F 100% 29.39 in 10.0 mi WSW 10.4 mph - N/A   Overcast
8:36 PM 17.6 °F 9.3 °F 17.6 °F 100% 29.39 in 10.0 mi WSW 5.8 mph - N/A   Overcast
8:56 PM 17.6 °F 7.3 °F 15.8 °F 93% 29.39 in 10.0 mi WSW 8.1 mph - N/A   Overcast
9:16 PM 17.6 °F 6.4 °F 17.6 °F 100% 29.39 in 8.0 mi WSW 9.2 mph - N/A   Overcast
9:36 PM 17.6 °F 7.3 °F 17.6 °F 100% 29.39 in 5.0 mi WSW 8.1 mph - N/A   Overcast
10:36 PM - - - N/A% 29.38 in - WSW 6.9 mph - N/A   Unknown
10:56 PM 17.6 °F 8.2 °F 12.2 °F 79% 29.38 in 1.5 mi WSW 6.9 mph - N/A   Overcast
11:16 PM 17.6 °F 9.3 °F 14.0 °F 86% 29.39 in 1.8 mi WSW 5.8 mph - N/A   Overcast
11:36 PM 15.8 °F 8.6 °F 14.0 °F 93% 29.40 in 1.8 mi ESE 4.6 mph - N/A   Overcast
11:56 PM 15.8 °F 7.2 °F 14.0 °F 93% 29.40 in 1.2 mi East 5.8 mph - N/A   Overcast